Lid_Strength_Index
2 2 2 2 3 3 4 5 5 6 6 8 8 9 9 10 10 11 11 12 12 12
2 2 2 3 3 4 4 5 5 6 7 8 8 8 9 9 11 11 11 12 12 12
2 2 2 2 3 3 4 5 6 7 8 8 9 9 9 10 12 11 12 12 13 12
3 2 2 3 3 3 5 6 6 7 10 10 11 11 10 10 10 10 11 11 11 12
8 8 6 4 5 5 5 6 8 8 9 10 9 9 9 10 10 11 12 12 12 12
10 11 10 10 10 6 6 6 6 7 9 8 10 10 10 10 11 11 11 12 13 13
11 11 12 12 11 11 10 8 8 7 7 7 9 11 11 12 12 12 12 12 12 12
12 12 11 12 11 11 11 11 11 10 11 10 10 11 12 12 12 12 13 13 13 12
14 13 13 12 12 11 12 11 11 11 11 10 12 9 9 11 12 12 12 13 13 12
15 15 14 13 13 13 12 11 11 12 11 12 12 9 9 10 12 12 12 12 12 13
16 15 15 14 14 13 13 12 12 12 11 11 10 8 8 10 11 11 12 11 12 12
17 17 16 16 16 15 14 13 13 13 12 12 11 8 8 10 12 11 12 12 11 12
17 17 17 17 17 15 14 14 13 13 13 13 11 9 9 10 11 11 12 12 12 12
17 18 18 17 17 16 16 15 15 14 14 13 13 11 9 8 11 11 11 12 12 12